| time (UTC) | temp F | wind direction | speed MPH | gust MPH | rain 1hr in | rain 24hr in | rain mn in | humidity % | barometer mb |
| 20260510220006 | 63 | 208 | 1.0 | 2.0 | 0.00 | 0.00 | 0.00 | 80 | 1008.8 |
| 20260510210006 | 64 | 197 | 0.0 | 3.0 | 0.00 | 0.00 | 0.00 | 77 | 1008.7 |
| 20260510200005 | 64 | 173 | 1.0 | 3.0 | 0.00 | 0.00 | 0.00 | 80 | 1008.3 |
| 20260510190005 | 66 | 192 | 1.0 | 3.0 | 0.00 | 0.00 | 0.00 | 76 | 1007.9 |
| 20260510180005 | 67 | 183 | 2.0 | 6.0 | 0.00 | 0.00 | 0.00 | 68 | 1007.8 |
| 20260510170006 | 68 | 213 | 3.0 | 6.0 | 0.00 | 0.00 | 0.00 | 68 | 1007.8 |
| 20260510160006 | 68 | 208 | 3.0 | 7.0 | 0.00 | 0.00 | 0.00 | 69 | 1007.8 |
| 20260510150005 | 67 | 212 | 2.0 | 9.0 | 0.00 | 0.00 | 0.00 | 70 | 1007.9 |
| 20260510140005 | 68 | 201 | 3.0 | 8.0 | 0.00 | 0.00 | 0.00 | 70 | 1008.1 |
| 20260510130005 | 67 | 200 | 3.0 | 8.0 | 0.00 | 0.00 | 0.00 | 72 | 1008.5 |
| 20260510120006 | 67 | 207 | 4.0 | 8.0 | 0.00 | 0.00 | 0.00 | 70 | 1008.6 |
| 20260510110005 | 64 | 198 | 3.0 | 10.0 | 0.03 | 0.00 | 0.00 | 85 | 1008.8 |
| 20260510100005 | 68 | 197 | 3.0 | 8.0 | 0.00 | 0.00 | 0.00 | 73 | 1008.6 |
| 20260510090005 | 67 | 191 | 3.0 | 6.0 | 0.00 | 0.00 | 0.00 | 74 | 1008.2 |
| 20260510080006 | 65 | 158 | 2.0 | 4.0 | 0.00 | 0.00 | 0.00 | 78 | 1008.0 |
| 20260510070006 | 64 | 192 | 2.0 | 3.0 | 0.00 | 0.00 | 0.00 | 79 | 1007.5 |
| 20260510060006 | 63 | 170 | 1.0 | 4.0 | 0.00 | 0.00 | 0.00 | 79 | 1007.3 |
| 20260510050005 | 63 | 160 | 3.0 | 7.0 | 0.00 | 0.00 | 0.00 | 77 | 1006.8 |
| 20260510040005 | 63 | 155 | 2.0 | 6.0 | 0.00 | 0.00 | 0.00 | 78 | 1006.8 |
| 20260510030006 | 63 | 146 | 3.0 | 8.0 | 0.00 | 0.00 | 0.00 | 80 | 1006.9 |
| 20260510020006 | 63 | 145 | 3.0 | 8.0 | 0.00 | 0.00 | 0.00 | 83 | 1007.1 |
| 20260510010005 | 63 | 160 | 1.0 | 2.0 | 0.00 | 0.00 | 0.00 | 83 | 1007.5 |
| 20260510000005 | 63 | 190 | 1.0 | 2.0 | 0.00 | 0.00 | 0.00 | 83 | 1008.0 |
| 20260509230005 | 63 | 170 | 1.0 | 4.0 | 0.00 | 0.00 | 0.00 | 84 | 1008.1 |